Location: G?dem
(17.0007°N, 80.4712°E)
Time: 06:01:43
(UTC+00:00)

Daily predictions for brighter satellites

Satellite Brightness Start Highest point End
(mag) Time Altitude Azimuth Time Altitude Azimuth Time Altitude Azimuth
NOSS 3-4 (A) 4.2 12:16:38 10° NNW 12:24:26 76° ENE 12:33:11 10° SSE
NOSS 3-4 (C) 4.2 12:16:44 10° NNW 12:24:32 75° ENE 12:33:14 10° SSE
Cosmos 1833 Rocket 3.2 12:19:36 10° N 12:24:43 35° ENE 12:29:49 10° SE
Cosmos 2251 Rocket 3.5 12:22:14 10° S 12:27:26 81° ESE 12:32:42 10° NNE
SKYMED 2 3.5 12:25:41 10° NNE 12:30:02 81° ESE 12:34:21 10° S
CZ-2D R/B 2.6 12:27:01 10° SSE 12:30:09 72° ENE 12:33:16 10° N
IRS-P3 4.4 12:26:03 10° SSE 12:31:08 46° ENE 12:36:10 10° N
COSMO-SKYMED 1 2.6 12:27:39 10° NNE 12:31:40 51° E 12:35:39 10° S
SAR-Lupe-1 4.0 12:30:47 10° SSE 12:34:19 86° ENE 12:37:52 10° N
GPS 2-15 Rocket1 3.1 12:39:58 10° WSW 12:44:40 78° SSE 12:48:27 15° E
USA 276 0.5 12:44:43 10° SSW 12:45:50 36° SE 12:45:50 36° SE
YAOGAN 1 3.7 12:42:58 10° SE 12:46:11 21° ENE 12:49:24 10° NNE
Centaur AC-119 4.4 12:42:19 10° WNW 12:47:57 39° N 12:54:20 15° ENE
ARIANE 5 R/B 2.9 12:43:39 10° S 12:48:36 68° WSW 12:53:32 10° NNW
Aureole 3 Rocket 3.9 12:45:42 10° SSW 12:49:20 42° W 12:52:22 10° NNW
USA 215 3.8 12:46:24 10° ESE 12:52:14 36° NE 12:58:03 10° NNW
Helios 1A Rocket 3.3 12:51:38 10° N 12:54:55 49° WNW 12:58:11 10° SSW
Cosmos 1464 Rocket 4.0 12:48:54 10° S 12:55:15 81° E 13:01:34 10° N
CZ-2D R/B 3.7 12:52:50 10° SSE 12:56:36 41° ENE 13:00:28 10° N
Okean 2 Rocket 3.0 12:54:48 10° S 12:59:12 70° E 13:03:34 10° N
GPS 2-12 Rocket1 4.2 12:55:57 10° W 13:00:15 40° SSW 13:04:35 10° SE
SJ 16-02 1.8 12:57:02 10° SSW 13:01:17 62° WNW 13:05:31 10° N
Meteor 2-12 Rocket 4.4 12:55:20 10° N 13:01:24 84° E 13:07:26 10° S
Cosmos 1602 4.0 13:03:26 29° ESE 13:03:26 29° ESE 13:05:45 10° SSE
Cosmos 2034 Rocket 3.9 13:00:55 10° S 13:06:58 62° E 13:13:03 10° NNE
Cosmos 676 Rocket 4.1 13:02:32 10° SSW 13:07:50 83° WNW 13:13:08 10° NNE
SPOT 1/Viking Rocket 3.4 13:07:46 10° SSE 13:12:53 75° ENE 13:18:01 10° N
Delta 2 Rocket 4.3 13:10:32 10° NNW 13:13:52 25° NNE 13:13:52 25° NNE
Cosmos 2297 4.2 13:15:47 10° S 13:21:03 39° ESE 13:22:24 34° ENE
Cosmos 1400 Rocket 4.0 13:17:37 10° SSW 13:21:13 39° W 13:24:48 10° NNW
Cosmos 1536 Rocket 3.7 13:17:46 10° N 13:21:59 46° E 13:26:10 10° SSE
Cosmos 2058 2.6 13:18:50 10° N 13:22:46 73° E 13:26:44 10° S
NOAA 15 4.5 13:18:44 10° SSE 13:23:58 75° ENE 13:29:14 10° N
Cosmos 2369 Rocket 2.4 13:20:34 10° S 13:25:50 45° ESE 13:27:04 39° ENE
SJ-7 4.2 13:26:06 10° S 13:29:46 78° WSW 13:33:27 10° NNW
Spot 4 Rocket 4.0 13:27:55 10° S 13:33:01 81° WSW 13:38:06 10° NNW
Timation 1 Rocket 4.4 13:28:12 10° N 13:33:55 48° ENE 13:36:02 34° ESE
BlueWalker 3 3.9 13:34:01 10° WSW 13:36:51 21° NW 13:38:07 18° NNW
Cosmos 968 Rocket 3.3 13:34:04 10° SSW 13:39:09 89° E 13:41:06 39° NNE
Cosmos 1455 Rocket 2.9 13:36:25 10° S 13:40:28 74° SE 13:40:28 74° SE
Cosmos 1741 Rocket 3.8 13:38:43 10° S 13:43:53 68° ESE 13:44:10 66° E
ATLAS 5 CENTAUR R/B 2.3 13:41:17 10° NNW 13:46:49 87° WSW 13:53:27 10° SSE
Tiangong 0.5 13:48:04 10° NW 13:48:57 17° NW 13:48:57 17° NW
BREEZE-M DEB (TANK) 3.4 13:42:17 10° SW 13:52:13 76° NW 13:52:37 69° N
Delta 198 4.0 13:47:17 10° WNW 13:52:43 70° NNE 13:52:50 70° NNE
SL-4 R/B 3.4 13:54:57 10° WNW 13:57:31 33° W 13:57:31 33° W
NOAA 6 4.2 13:53:32 10° S 13:58:40 71° WSW 14:03:47 10° NNW
Cosmos 332 Rocket 4.3 13:58:09 10° SSW 14:01:55 54° SSW 14:01:55 54° SSW
Cosmos 540 Rocket 4.4 14:04:13 10° NNW 14:09:03 44° WSW 14:13:51 10° S
Delta 7925 Rocket 4.2 14:05:30 10° W 14:10:46 56° NNW 14:10:46 56° NNW
Aurora 2 Rocket 4.5 14:02:28 10° W 14:12:06 54° N 14:13:27 50° NNE
Intelsat 5-1 Rocket 3.6 14:17:42 10° W 14:22:57 65° N 14:23:11 65° N
USA 215 4.4 14:29:16 11° S 14:35:00 39° SW 14:41:00 10° WNW
VEP-3 4.1 15:02:29 10° WNW 15:05:12 33° W 15:05:12 33° W
CZ-3 R/B 3.8 20:41:54 10° WSW 21:31:00 80° NNW 21:42:03 10° ENE
CZ-3 Stage 3 3.9 21:36:38 70° ESE 21:36:38 70° ESE 22:00:08 10° ENE
SL-16 R/B 4.2 21:42:57 10° SE 21:48:03 27° ENE 21:48:03 27° ENE
ATLAS CENTAUR Rocket 4.2 22:01:45 20° ESE 22:01:45 20° ESE 22:03:08 10° E
Cosmos 1943 Rocket 3.9 22:19:09 23° NE 22:20:54 27° ENE 22:25:28 10° SE
Cosmos 2278 Rocket 4.0 22:18:46 20° NE 22:21:05 26° ENE 22:25:43 10° SE
Hubble Space Telescope 2.2 22:48:13 33° ESE 22:48:13 33° ESE 22:50:50 10° E
IUS-1 SRM-2 4.4 22:48:17 40° NW 22:50:11 45° N 22:54:25 10° ENE
USA 229 DEB 3.6 22:55:55 47° NNW 22:55:55 47° NNW 23:00:27 10° NNE
Cosmos 1140 Rocket 3.6 22:55:37 54° SSW 22:55:37 54° SSW 22:59:45 10° S
USA 229 3.5 22:56:02 49° NNW 22:56:02 49° NNW 23:00:40 10° NNE
DASH 3.2 22:59:23 49° W 23:00:56 70° SSW 23:04:13 10° SE
GPS 2-17 Rocket1 3.6 23:07:31 41° SSW 23:07:33 41° SSW 23:11:33 10° SE
SL-16 R/B 2.3 23:10:34 42° WSW 23:11:40 48° WNW 23:17:08 10° N
UNK 3.7 23:07:33 10° SSE 23:12:04 79° ENE 23:15:25 18° N
ATLAS 3B R/B 3.1 23:11:24 29° WSW 23:14:38 44° WNW 23:21:51 10° N
SJ 16-02 3.9 23:15:18 10° NNE 23:18:17 18° ENE 23:21:16 10° ESE
SJ-11-01 4.1 23:14:12 10° N 23:18:53 83° WNW 23:23:34 10° SSW
Cosmos 1459 Rocket 4.3 23:19:02 29° NW 23:21:27 41° W 23:27:12 10° SSW
Cosmos 1331 Rocket 4.2 23:16:27 10° S 23:21:42 74° ESE 23:26:55 10° NNE
SWIFT 1.6 23:21:45 72° NNW 23:21:58 76° NNE 23:25:24 10° E
Aureole 3 4.3 23:18:47 10° SSW 23:25:17 69° W 23:31:00 10° N
SAR-Lupe-3 4.0 23:26:08 10° SSE 23:28:47 66° ENE 23:29:43 35° N
Centaur D-1A AC-35 3.3 23:27:07 26° WSW 23:28:57 34° SW 23:32:09 10° SE
SL-16 R/B 3.3 23:26:06 10° SSW 23:31:21 29° W 23:33:08 25° WNW
Skynet4D Del rocket 4.2 23:29:00 27° W 23:32:33 54° NNW 23:38:28 10° ENE
Cosmos 44 Rocket 4.5 23:32:26 24° WSW 23:32:40 24° WSW 23:36:46 10° SSW
BlueWalker 3 3.0 23:34:38 25° SW 23:34:38 25° SW 23:37:33 10° S
Timation 2 Rocket 4.4 23:33:34 22° NW 23:37:03 39° WSW 23:42:37 10° S
GOES 2 Rocket 3.0 23:38:31 27° W 23:40:32 54° NNW 23:44:39 10° ENE
Cosmos 1782 Rocket 3.7 23:39:18 10° NNW 23:43:28 48° W 23:47:35 10° SSW
Cosmos 2061 Rocket 3.9 23:39:31 10° N 23:45:41 75° W 23:51:54 10° S
Cosmos 1190 Rocket 4.2 23:40:53 10° N 23:46:04 72° ENE 23:51:14 10° SSE
Cosmos 1300 Rocket 4.2 23:47:11 12° NNW 23:50:32 32° W 23:54:20 10° SSW
Cosmos 2233 Rocket 4.1 23:46:08 10° NNW 23:52:12 55° W 23:58:12 10° SSW
Cosmos 1378 Rocket 3.6 23:50:23 10° SSW 23:54:32 53° W 23:58:42 10° N
